Content
SEND FEEDBACK

Daily
Averages
Monthly
Summary
United States of America

WILLIAMSPORT, MARYLAND


Home > North America > United States > Maryland
Elevation: 36 feet     Latitude: 39 37N     Longitude: 077 51W

WEATHER
 
SELECT A DAY
Number of Records: 191,626;   Date Range: 1/1/95 - 12/19/14
 
SHARE

PRINT THIS DATA

[ ← Previous Day ]
WEATHER ALMANAC - JUNE 17, 2014
[ Next Day → ]
[ °C ]   °F
Weather ElementAverageHighLow
Temperature80.7 °F91 °F (4:53 pm)69.1 °F (3:53 am)
Dewpoint67.9 °F70 °F (5:53 pm)66 °F (3:53 am)
Humidity67.3 %90 % (2:53 am)45 % (3:53 pm)
Barometer30.06 in30.15 in (8:53 am)29.97 in (7:53 pm)
Wind Speed6.6 mph12.7 mph (5:53 pm)
Weather ElementAverage
Visibility9.8 mi
Wind DirectionS (179.1 °)

Weather ElementTotal
Precipitation---
Cooling Degree Days15.1 (Base 65)
Growing Degree Days30.1 (Base 50)
Averaged from 23 records on June 17, 2014
WEATHER CONDITIONS BREAKOUT
WIND DIRECTION BREAKOUT
WEATHER BY HOUR - JUNE 17, 2014
[ °C ]   °F
Local TimeTemperatureDewpointHumidityBarometerVisibilityWind DirectionWind SpeedGust SpeedPrecipitationEventsConditions
1:53 AM71.1 °F66.9 °F87 %30.09 in10.0 miSouth (170°)5.8 mphClear
2:53 AM70.0 °F66.9 °F90 %30.11 in10.0 miSouth (190°)4.6 mphClear
3:53 AM69.1 °F66.0 °F90 %30.08 in10.0 miSouth (190°)3.5 mphClear
4:53 AM69.1 °F66.0 °F90 %30.09 in10.0 miCalmClear
5:53 AM69.1 °F66.0 °F90 %30.11 in8.0 miSSE (150°)4.6 mphClear
6:53 AM70.0 °F66.9 °F90 %30.13 in8.0 miSSE (150°)5.8 mphClear
7:53 AM73.9 °F66.9 °F79 %30.14 in10.0 miWest (260°)4.6 mphClear
8:53 AM77.0 °F68.0 °F74 %30.15 in10.0 miVariable3.5 mphClear
9:53 AM79.0 °F68.0 °F69 %30.14 in10.0 miSW (220°)5.8 mphClear
10:53 AM82.0 °F69.1 °F65 %30.12 in10.0 miWest (260°)4.6 mphClear
11:53 AM84.9 °F69.1 °F59 %30.12 in10.0 miVariable4.6 mphClear
12:53 PM86.0 °F66.9 °F53 %30.10 in10.0 miSSW (200°)5.8 mphPartly Cloudy
1:53 PM88.0 °F68.0 °F51 %30.08 in10.0 miWSW (250°)6.9 mphPartly Cloudy
2:53 PM89.1 °F66.0 °F46 %30.05 in10.0 miSW (220°)9.2 mphPartly Cloudy
3:53 PM90.0 °F66.0 °F45 %30.03 in10.0 miSW (220°)10.4 mphPartly Cloudy
4:53 PM91.0 °F66.9 °F45 %30.01 in10.0 miWSW (250°)10.4 mphPartly Cloudy
5:53 PM90.0 °F70.0 °F52 %30.00 in10.0 miSouth (180°)12.7 mphClear
6:53 PM89.1 °F70.0 °F53 %29.98 in10.0 miSouth (180°)12.7 mphClear
7:53 PM87.1 °F70.0 °F57 %29.97 in10.0 miSouth (190°)11.5 mphClear
8:53 PM84.9 °F70.0 °F61 %29.99 in10.0 miSSW (200°)6.9 mphPartly Cloudy
9:53 PM82.9 °F69.1 °F63 %29.98 in10.0 miSSW (200°)8.1 mphClear
10:53 PM81.0 °F70.0 °F69 %29.99 in10.0 miSW (220°)4.6 mphPartly Cloudy
11:53 PM81.0 °F70.0 °F69 %29.99 in10.0 miSW (220°)5.8 mphClear
Hourly data recorded from KHGR, located miles away from Williamsport, Maryland







STORIES FROM OUR PARTNERS